Flag for Germany Weather past 2 weeks in Schwäbisch Hall, Baden-Württemberg, Germany

Now
52 °F

Clear.


Feels Like: 52 °F
Forecast: 54 / 69 °F
Wind: 2 mph from East

Location: Oehringen

Current Time: Aug 28, 2014 at 2:14:27 AM

Latest Report: Aug 28, 2014 at 2:00 AM


Visibility: 8 mi

Pressure: 30.09 "Hg

Humidity: 94%

Dew point: 51 °F

Location of Schwäbisch HallLocation

Historic Weather in Schwäbisch Hall — Graph

°F

Schwäbisch Hall temperature yesterday

Maximum temperature yesterday: 69 °F (at 6:00 PM)
Minimum temperature yesterday: 55 °F (at 11:00 PM)
Average temperature yesterday: 61 °F

Past Weeks' High & Low Weather Summary

 TemperatureHumidityPressure
High70 °F (Aug 17, 5:00 PM)97% (Aug 26, 11:00 PM)30.16 "Hg (Aug 26, 11:00 PM)
Low48 °F (Aug 20, 7:00 AM)34% (Aug 22, 6:00 PM)29.66 "Hg (Aug 13, 7:00 PM)
Average59 °F75%29.96 "Hg
* Reported Aug 13 1:00 AM — Aug 28 1:00 AM, Schwäbisch Hall, Weather by CustomWeather, © 2014

Note: Actual official high and low records may vary slightly from our data, if they occured in-between our weather recording intervals... More about our weather records

Advertising

Schwäbisch Hall weather history for previous 24 hours

 ConditionsComfort  
Time TempWeatherWind HumidityBarometerVisibility
1:00 AM
Aug 28
54 °FClear.1 mph91%30.08 "Hg8 mi
12:00 AM54 °FClear.1 mph90%30.08 "Hg19 mi
11:00 PM
Aug 27
55 °FClear.1 mph91%30.07 "Hg19 mi
10:00 PM57 °FClear.2 mph88%30.06 "Hg25 mi
9:00 PM60 °FPassing clouds.2 mph81%30.05 "Hg31 mi
8:00 PM66 °FSunny.1 mph59%30.03 "Hg43 mi
7:00 PM69 °FSunny.1 mph49%30.02 "Hg43 mi
6:00 PM69 °FSunny.3 mph51%30.01 "Hg43 mi
5:00 PM69 °FScattered clouds.1 mph48%30.01 "Hg43 mi
4:00 PM69 °FPassing clouds.1 mph48%30.01 "Hg31 mi
3:00 PM66 °FOvercast.2 mph58%30.01 "Hg43 mi
2:00 PM67 °FPartly sunny.2 mph53%30.01 "Hg28 mi
1:00 PM65 °FPassing clouds.2 mph57%30.01 "Hg31 mi
12:00 PM62 °FOvercast.3 mph71%30.01 "Hg40 mi
11:00 AM60 °FOvercast.2 mph81%30.00 "Hg19 mi
10:00 AM58 °FOvercast.3 mph87%29.97 "Hg22 mi
9:00 AM57 °FLow clouds.1 mph90%29.95 "Hg22 mi
8:00 AM55 °FLight rain. Low clouds.2 mph95%29.92 "Hg12 mi
7:00 AM55 °FLow clouds.2 mph96%29.88 "Hg22 mi
6:00 AM56 °FDrizzle. Low clouds.3 mph94%29.85 "Hg34 mi
5:00 AM59 °FDrizzle. Low clouds.5 mph95%29.82 "Hg6 mi
4:00 AM59 °FLight rain. Low clouds.6 mph96%29.80 "Hg3 mi
3:00 AM59 °FRain. Low clouds.5 mph97%29.80 "Hg2 mi
2:00 AM59 °FLow clouds.5 mph95%29.79 "Hg13 mi
Weather by CustomWeather, © 2014

See weather overviewHow to use our weather pages